User: anonymous   Login
Location: CNYAC Observatory
(43.2150°N, 74.9500°W)
Time: 11:26:05
(UTC-05:00)
Language:

Meteor 1-22 Rocket - Orbit

View from above orbital plane
View from above orbital plane
View from above satellite
View from above satellite

Ground track
Ground track

The orbit data is extracted from the following two-line orbital elements,

1 08294U 75087B   15025.87523244 -.00000200  00000-0 -11758-3 0  1719
2 08294 081.2156 153.8109 0105281 345.9992 164.4486 14.08505612 21911
Epoch (UTC): 25 January 2015 21:00:20
Eccentricity: 0.0105281
inclination: 81.2156°
perigee height: 788 km
apogee height: 941 km
right ascension of ascending node: 153.8109°
argument of perigee: 345.9992°
revolutions per day: 14.08505612
mean anomaly at epoch: 164.4486°
orbit number at epoch: 2191

The dashed part of the orbit path shows where the satellite is in the earth's shadow,  

DLR